TimeCDT,TemperatureF,Dew PointF,Humidity,Sea Level PressureIn,VisibilityMPH,Wind Direction,Wind SpeedMPH,Gust SpeedMPH,PrecipitationIn,Events,Conditions,WindDirDegrees,DateUTC
12:15 AM,60.8,60.8,100,29.80,5.0,ENE,4.6,-,0.02,,Drizzle,70,2013-05-16 05:15:00
12:35 AM,60.8,60.8,100,29.81,5.0,Calm,Calm,-,0.03,,Drizzle,0,2013-05-16 05:35:00
12:55 AM,60.8,60.8,100,29.81,5.0,Calm,Calm,-,0.09,Rain,Heavy Rain,0,2013-05-16 05:55:00
1:15 AM,60.8,60.8,100,29.81,3.0,Calm,Calm,-,0.11,Rain,Heavy Rain,0,2013-05-16 06:15:00
1:35 AM,60.8,60.8,100,29.81,2.5,WSW,4.6,-,0.40,Rain,Heavy Rain,250,2013-05-16 06:35:00
1:55 AM,60.8,60.8,100,29.82,4.0,Calm,Calm,-,0.52,Rain,Rain,0,2013-05-16 06:55:00
2:15 AM,60.8,60.8,100,29.82,7.0,Calm,Calm,-,N/A,,Drizzle,0,2013-05-16 07:15:00
2:35 AM,60.8,60.8,100,29.81,7.0,Calm,Calm,-,0.01,Rain,Rain,0,2013-05-16 07:35:00
2:55 AM,59.0,59.0,100,29.81,5.0,Calm,Calm,-,0.01,,Drizzle,0,2013-05-16 07:55:00
3:15 AM,59.0,59.0,100,29.81,10.0,Calm,Calm,-,N/A,,Overcast,0,2013-05-16 08:15:00
3:35 AM,59.0,59.0,100,29.80,10.0,Calm,Calm,-,N/A,,Overcast,0,2013-05-16 08:35:00
3:55 AM,59.0,59.0,100,29.80,10.0,Calm,Calm,-,N/A,,Overcast,0,2013-05-16 08:55:00
4:15 AM,59.0,59.0,100,29.81,10.0,Calm,Calm,-,N/A,,Overcast,0,2013-05-16 09:15:00
4:35 AM,60.8,60.8,100,29.81,10.0,Calm,Calm,-,N/A,,Overcast,0,2013-05-16 09:35:00
4:55 AM,60.8,60.8,100,29.81,10.0,Calm,Calm,-,N/A,,Overcast,0,2013-05-16 09:55:00
5:15 AM,59.0,59.0,100,29.81,10.0,Calm,Calm,-,N/A,,Overcast,0,2013-05-16 10:15:00
5:35 AM,59.0,59.0,100,29.82,10.0,Calm,Calm,-,N/A,,Overcast,0,2013-05-16 10:35:00
5:55 AM,59.0,59.0,100,29.82,7.0,Calm,Calm,-,N/A,Rain,Light Rain,0,2013-05-16 10:55:00
6:15 AM,59.0,59.0,100,29.83,10.0,Calm,Calm,-,N/A,Rain,Light Rain,0,2013-05-16 11:15:00
6:35 AM,59.0,59.0,100,29.84,10.0,Calm,Calm,-,N/A,,Light Drizzle,0,2013-05-16 11:35:00
6:55 AM,60.8,60.8,100,29.84,10.0,Calm,Calm,-,N/A,,Overcast,0,2013-05-16 11:55:00
7:15 AM,60.8,60.8,100,29.85,10.0,Calm,Calm,-,N/A,,Overcast,0,2013-05-16 12:15:00
7:35 AM,60.8,60.8,100,29.86,10.0,Calm,Calm,-,N/A,,Overcast,0,2013-05-16 12:35:00
7:55 AM,60.8,60.8,100,29.86,10.0,Calm,Calm,-,N/A,,Overcast,0,2013-05-16 12:55:00
8:15 AM,60.8,60.8,100,29.86,10.0,Calm,Calm,-,N/A,,Overcast,0,2013-05-16 13:15:00
8:35 AM,60.8,60.8,100,29.86,10.0,Calm,Calm,-,N/A,,Overcast,0,2013-05-16 13:35:00
8:55 AM,60.8,60.8,100,29.86,10.0,Calm,Calm,-,N/A,,Overcast,0,2013-05-16 13:55:00
9:15 AM,62.6,62.6,100,29.86,10.0,ESE,4.6,-,N/A,,Overcast,120,2013-05-16 14:15:00
9:35 AM,62.6,62.6,100,29.86,10.0,SE,3.5,-,N/A,,Overcast,130,2013-05-16 14:35:00
9:55 AM,62.6,62.6,100,29.86,10.0,Calm,Calm,-,N/A,,Overcast,0,2013-05-16 14:55:00
10:15 AM,62.6,62.6,100,29.87,10.0,Calm,Calm,-,N/A,,Overcast,0,2013-05-16 15:15:00
10:35 AM,64.4,64.4,100,29.86,10.0,ESE,4.6,-,N/A,,Overcast,120,2013-05-16 15:35:00
10:55 AM,66.2,64.4,94,29.87,10.0,Calm,Calm,-,N/A,,Scattered Clouds,0,2013-05-16 15:55:00
11:15 AM,68.0,64.4,88,29.87,10.0,Calm,Calm,-,N/A,,Scattered Clouds,0,2013-05-16 16:15:00
11:35 AM,68.0,64.4,88,29.87,10.0,ENE,5.8,-,N/A,,Mostly Cloudy,60,2013-05-16 16:35:00
11:55 AM,68.0,62.6,83,29.87,10.0,ENE,5.8,-,N/A,,Scattered Clouds,70,2013-05-16 16:55:00
12:15 PM,68.0,62.6,83,29.87,10.0,ENE,4.6,-,N/A,,Mostly Cloudy,70,2013-05-16 17:15:00
12:35 PM,68.0,64.4,88,29.87,10.0,ESE,3.5,-,N/A,,Overcast,120,2013-05-16 17:35:00
12:55 PM,68.0,64.4,88,29.86,10.0,SE,5.8,-,N/A,,Overcast,130,2013-05-16 17:55:00
1:15 PM,69.8,64.4,83,29.85,10.0,ESE,6.9,-,N/A,,Mostly Cloudy,120,2013-05-16 18:15:00
1:35 PM,71.6,64.4,78,29.85,10.0,SSE,5.8,-,N/A,,Mostly Cloudy,150,2013-05-16 18:35:00
1:55 PM,69.8,64.4,83,29.86,10.0,SSW,3.5,-,N/A,,Mostly Cloudy,210,2013-05-16 18:55:00
2:15 PM,71.6,64.4,78,29.86,10.0,South,3.5,-,N/A,,Mostly Cloudy,180,2013-05-16 19:15:00
2:35 PM,71.6,64.4,78,29.85,10.0,SE,3.5,-,N/A,,Mostly Cloudy,130,2013-05-16 19:35:00
2:55 PM,71.6,64.4,78,29.85,10.0,Calm,Calm,-,N/A,,Scattered Clouds,0,2013-05-16 19:55:00
3:15 PM,73.4,64.4,73,29.85,10.0,Calm,Calm,-,N/A,,Scattered Clouds,0,2013-05-16 20:15:00
3:35 PM,73.4,64.4,73,29.84,10.0,Calm,Calm,-,N/A,,Mostly Cloudy,0,2013-05-16 20:35:00
3:55 PM,77.0,64.4,65,29.83,10.0,Calm,Calm,-,N/A,,Scattered Clouds,0,2013-05-16 20:55:00
4:15 PM,77.0,64.4,65,29.83,10.0,Calm,Calm,-,N/A,,Scattered Clouds,0,2013-05-16 21:15:00
4:35 PM,78.8,64.4,61,29.82,10.0,Calm,Calm,-,N/A,,Scattered Clouds,0,2013-05-16 21:35:00
4:55 PM,78.8,66.2,65,29.81,10.0,SW,3.5,-,N/A,,Scattered Clouds,220,2013-05-16 21:55:00
5:15 PM,80.6,66.2,61,29.81,10.0,SSW,4.6,-,N/A,,Mostly Cloudy,200,2013-05-16 22:15:00
5:35 PM,78.8,66.2,65,29.80,10.0,SSE,3.5,-,N/A,,Overcast,160,2013-05-16 22:35:00
5:55 PM,78.8,64.4,61,29.80,10.0,South,4.6,-,N/A,,Mostly Cloudy,170,2013-05-16 22:55:00
6:15 PM,77.0,64.4,65,29.80,10.0,Calm,Calm,-,N/A,,Mostly Cloudy,0,2013-05-16 23:15:00
6:35 PM,78.8,64.4,61,29.80,10.0,Calm,Calm,-,N/A,,Mostly Cloudy,0,2013-05-16 23:35:00
6:55 PM,77.0,64.4,65,29.80,10.0,SSE,4.6,-,N/A,,Scattered Clouds,160,2013-05-16 23:55:00
7:15 PM,73.4,64.4,73,29.80,10.0,Calm,Calm,-,N/A,,Clear,0,2013-05-17 00:15:00
7:35 PM,71.6,62.6,73,29.80,10.0,Calm,Calm,-,N/A,,Clear,0,2013-05-17 00:35:00
7:55 PM,73.4,62.6,69,29.80,10.0,Calm,Calm,-,N/A,,Clear,0,2013-05-17 00:55:00
8:15 PM,71.6,62.6,73,29.81,10.0,Calm,Calm,-,N/A,,Clear,0,2013-05-17 01:15:00
8:35 PM,69.8,62.6,78,29.81,10.0,Calm,Calm,-,N/A,,Clear,0,2013-05-17 01:35:00
8:55 PM,68.0,62.6,83,29.82,10.0,Calm,Calm,-,N/A,,Scattered Clouds,0,2013-05-17 01:55:00
9:15 PM,68.0,62.6,83,29.82,10.0,SE,3.5,-,N/A,,Scattered Clouds,130,2013-05-17 02:15:00
9:35 PM,68.0,62.6,83,29.83,10.0,ESE,4.6,-,N/A,,Scattered Clouds,120,2013-05-17 02:35:00
9:55 PM,66.2,62.6,88,29.84,10.0,Calm,Calm,-,N/A,,Clear,0,2013-05-17 02:55:00
10:15 PM,62.6,60.8,94,29.85,10.0,Calm,Calm,-,N/A,,Clear,0,2013-05-17 03:15:00
10:35 PM,62.6,60.8,94,29.86,10.0,Calm,Calm,-,N/A,,Clear,0,2013-05-17 03:35:00
10:55 PM,62.6,60.8,94,29.86,10.0,Calm,Calm,-,N/A,,Clear,0,2013-05-17 03:55:00
11:15 PM,60.8,59.0,94,29.85,10.0,Calm,Calm,-,N/A,,Clear,0,2013-05-17 04:15:00
11:35 PM,60.8,60.8,100,29.84,10.0,Calm,Calm,-,N/A,,Clear,0,2013-05-17 04:35:00
11:55 PM,62.6,60.8,94,29.84,10.0,Calm,Calm,-,N/A,,Clear,0,2013-05-17 04:55:00